CW0028 Weather Reports


time (UTC)temp
F
wind
direction
speed
knots
gust
knots
rain 1hr
in
rain 24hr
in
rain mn
in
humidity
%
barometer
mb
20260506143031 63 136 4.3 10.4 0.00 0.00 0.00 56 1009.8
20260506142531 63 143 3.5 13.0 0.00 0.00 0.00 55 1009.8
20260506142029 63 89 4.3 13.0 0.00 0.00 0.00 56 1009.9
20260506141530 63 112 3.5 8.7 0.00 0.00 0.00 55 1010.0
20260506141032 63 86 2.6 12.2 0.00 0.00 0.00 56 1010.0
20260506140532 63 137 4.3 11.3 0.00 0.00 0.00 55 1010.1
20260506140036 63 89 4.3 10.4 0.00 0.00 0.00 55 1010.2
20260506135528 64 123 5.2 10.4 0.00 0.00 0.00 55 1010.0
20260506135032 64 221 4.3 8.7 0.00 0.00 0.00 55 1010.0
20260506134527 64 107 3.5 9.6 0.00 0.00 0.00 56 1010.2
20260506134028 63 99 3.5 12.2 0.00 0.00 0.00 56 1010.3
20260506133525 62 138 5.2 12.2 0.00 0.00 0.00 56 1010.4
20260506133025 62 96 2.6 10.4 0.00 0.00 0.00 56 1010.3
20260506132525 63 211 5.2 14.8 0.00 0.00 0.00 55 1010.2
20260506132025 63 96 3.5 14.8 0.00 0.00 0.00 55 1010.1
20260506131524 63 124 4.3 10.4 0.00 0.00 0.00 57 1010.0
20260506131026 62 105 3.5 10.4 0.00 0.00 0.00 57 1009.9
20260506130525 62 144 5.2 10.4 0.00 0.00 0.00 57 1010.0
20260506130023 62 202 2.6 9.6 0.00 0.00 0.00 57 1009.9
20260506125519 62 101 2.6 8.7 0.00 0.00 0.00 57 1010.0
20260506125019 62 78 3.5 8.7 0.00 0.00 0.00 57 1010.0
20260506124519 62 219 4.3 8.7 0.00 0.00 0.00 57 1010.1
20260506124019 62 104 2.6 12.2 0.00 0.00 0.00 57 1010.0
20260506123519 62 161 6.1 12.2 0.00 0.00 0.00 57 1010.1
20260506123018 62 133 3.5 12.2 0.00 0.00 0.00 58 1010.1
20260506122517 62 207 4.3 9.6 0.00 0.00 0.00 58 1010.4
20260506122017 62 142 4.3 10.4 0.00 0.00 0.00 59 1010.4
20260506121516 61 165 2.6 9.6 0.00 0.00 0.00 59 1010.3
20260506121015 61 119 2.6 7.8 0.00 0.00 0.00 60 1010.3
20260506120514 60 146 3.5 8.7 0.00 0.00 0.00 61 1010.5
20260506120013 60 76 3.5 13.9 0.00 0.00 0.00 62 1010.6
20260506115512 60 148 5.2 13.9 0.00 0.00 0.00 63 1010.6
20260506115012 59 140 4.3 10.4 0.00 0.00 0.00 65 1010.5
20260506114513 59 290 3.5 10.4 0.00 0.00 0.00 65 1010.5
20260506114012 58 163 2.6 8.7 0.00 0.00 0.00 67 1010.6
20260506113512 58 134 2.6 10.4 0.00 0.00 0.00 67 1010.4
20260506113015 58 147 1.7 8.7 0.00 0.00 0.00 68 1010.2
20260506112512 57 92 1.7 8.7 0.00 0.00 0.00 69 1010.3
20260506112009 57 110 4.3 9.6 0.00 0.00 0.00 68 1010.1
20260506111508 56 117 2.6 9.6 0.00 0.00 0.00 68 1010.4
20260506111009 56 154 4.3 8.7 0.00 0.00 0.00 68 1010.4
20260506110506 56 134 4.3 8.7 0.00 0.00 0.00 68 1010.5
20260506110006 56 157 4.3 9.6 0.00 0.00 0.00 68 1010.5
20260506105507 56 119 3.5 10.4 0.00 0.00 0.00 68 1010.5
20260506105004 56 187 4.3 11.3 0.00 0.00 0.00 67 1010.3
20260506104502 56 89 2.6 11.3 0.00 0.00 0.00 67 1010.3
20260506104001 56 221 3.5 7.8 0.00 0.00 0.00 67 1010.2
20260506103502 56 86 1.7 8.7 0.00 0.00 0.00 67 1010.1
20260506103002 56 132 2.6 8.7 0.00 0.00 0.00 67 1010.3
20260506102600 56 125 3.5 7.8 0.00 0.00 0.00 67 1010.2
20260506102100 56 95 3.5 11.3 0.00 0.00 0.00 67 1010.2
20260506101559 56 142 3.5 11.3 0.00 0.00 0.00 67 1010.2
20260506101057 56 163 3.5 11.3 0.00 0.00 0.00 67 1010.1
20260506100556 56 125 4.3 10.4 0.00 0.00 0.00 67 1010.1
20260506100056 56 204 4.3 11.3 0.00 0.00 0.00 67 1010.3
20260506095555 56 101 4.3 10.4 0.00 0.00 0.00 66 1010.1
20260506095055 56 128 2.6 10.4 0.00 0.00 0.00 66 1010.2
20260506094555 56 74 2.6 8.7 0.00 0.00 0.00 66 1010.1
20260506094054 56 151 2.6 9.6 0.00 0.00 0.00 66 1010.1
20260506093554 56 123 1.7 7.0 0.00 0.00 0.00 66 1010.0
20260506093109 56 114 2.6 9.6 0.00 0.00 0.00 66 1010.1
20260506092554 56 143 3.5 9.6 0.00 0.00 0.00 66 1010.1
20260506092054 56 226 2.6 9.6 0.00 0.00 0.00 66 1010.0
20260506091553 56 169 4.3 9.6 0.00 0.00 0.00 66 1010.0
20260506091053 56 92 3.5 9.6 0.00 0.00 0.00 66 1010.1
20260506090550 56 167 2.6 9.6 0.00 0.00 0.00 66 1010.2
20260506090056 56 76 4.3 9.6 0.00 0.00 0.00 66 1010.3
20260506085550 56 82 4.3 9.6 0.00 0.00 0.00 66 1010.3
20260506085049 56 134 2.6 8.7 0.00 0.00 0.00 66 1010.4
20260506084549 56 110 4.3 8.7 0.00 0.00 0.00 65 1010.4
20260506084048 56 84 2.6 10.4 0.00 0.00 0.00 65 1010.5
20260506083548 55 109 3.5 9.6 0.00 0.00 0.00 65 1010.5
20260506083048 55 98 3.5 7.8 0.00 0.00 0.00 65 1010.4
20260506082546 55 131 3.5 9.6 0.00 0.00 0.00 65 1010.5
20260506082046 56 143 2.6 7.8 0.00 0.00 0.00 65 1010.5
20260506081546 56 108 3.5 10.4 0.00 0.00 0.00 65 1010.5
20260506081046 56 134 2.6 9.6 0.00 0.00 0.00 65 1010.4
20260506080545 56 183 3.5 11.3 0.00 0.00 0.00 65 1010.4
20260506073142 56 196 3.5 11.3 0.00 0.00 0.00 64 1010.5
20260506072541 56 95 2.6 8.7 0.00 0.00 0.00 64 1010.7
20260506072042 56 126 4.3 8.7 0.00 0.00 0.00 64 1010.8
20260506071540 56 95 3.5 9.6 0.00 0.00 0.00 63 1010.8
20260506071038 56 133 4.3 11.3 0.00 0.00 0.00 63 1010.8
20260506070538 56 80 4.3 12.2 0.00 0.00 0.00 63 1010.7
20260506062030 58 94 1.7 11.3 0.00 0.00 0.00 61 1010.7
20260506061532 58 180 3.5 11.3 0.00 0.00 0.00 61 1010.7
20260506061029 58 152 3.5 9.6 0.00 0.00 0.00 60 1010.7
20260506060527 58 101 2.6 7.8 0.00 0.00 0.00 60 1010.7
20260506051020 59 109 4.3 12.2 0.00 0.00 0.00 58 1011.0
20260506050521 59 209 4.3 10.4 0.00 0.00 0.00 58 1011.0
20260506045020 60 152 4.3 11.3 0.00 0.00 0.00 58 1011.0
20260506044517 60 216 5.2 10.4 0.00 0.00 0.00 58 1010.9
20260506044016 60 209 4.3 15.6 0.00 0.00 0.00 58 1010.9
20260506043516 60 128 5.2 15.6 0.00 0.00 0.00 58 1011.0
20260506043015 60 189 5.2 12.2 0.00 0.00 0.00 58 1011.0
20260506042514 60 119 3.5 9.6 0.00 0.00 0.00 58 1011.0
20260506042014 60 128 4.3 8.7 0.00 0.00 0.00 58 1011.0
20260506041513 60 152 5.2 10.4 0.00 0.00 0.00 58 1010.9
20260506041010 61 129 4.3 15.6 0.00 0.00 0.00 58 1011.1
20260506040511 61 129 5.2 15.6 0.00 0.00 0.00 58 1011.2
20260506040008 61 103 4.3 9.6 0.00 0.00 0.00 58 1011.2
20260506035508 61 154 4.3 13.0 0.00 0.00 0.00 58 1011.1
20260506035008 61 150 2.6 13.0 0.00 0.00 0.00 58 1011.1
20260506034508 61 251 3.5 11.3 0.00 0.00 0.00 58 1011.1
20260506034009 61 167 6.1 11.3 0.00 0.00 0.00 58 1011.0
20260506033507 61 125 4.3 14.8 0.00 0.00 0.00 58 1011.1
20260506033007 61 110 2.6 14.8 0.00 0.00 0.00 58 1010.9
20260506032507 61 115 4.3 11.3 0.00 0.00 0.00 58 1011.0
20260506032007 61 151 4.3 10.4 0.00 0.00 0.00 58 1010.9
20260506031507 61 133 6.1 13.9 0.00 0.00 0.00 58 1010.9
20260506031008 62 246 3.5 11.3 0.00 0.00 0.00 58 1011.1
20260506030506 62 67 5.2 13.9 0.00 0.00 0.00 58 1011.1
20260506030006 62 223 6.1 13.9 0.00 0.00 0.00 58 1011.1
20260506025511 62 243 7.0 15.6 0.00 0.00 0.00 57 1011.1
20260506025008 62 84 6.1 12.2 0.00 0.00 0.00 57 1011.2
20260506024507 62 205 3.5 13.0 0.00 0.00 0.00 57 1011.2
20260506024006 62 171 4.3 13.0 0.00 0.00 0.00 57 1011.0
20260506023506 62 109 6.1 12.2 0.00 0.00 0.00 56 1011.0
20260506023005 62 214 5.2 13.0 0.00 0.00 0.00 56 1011.0
20260506022505 62 136 6.1 13.0 0.00 0.00 0.00 56 1011.1
20260506022005 62 232 7.0 15.6 0.00 0.00 0.00 56 1011.1
20260506021505 62 173 5.2 18.2 0.00 0.00 0.00 55 1011.1
20260506021006 63 166 7.8 18.2 0.00 0.00 0.00 55 1010.9
20260506020504 63 80 2.6 13.9 0.00 0.00 0.00 55 1011.1
20260506020004 63 93 6.1 13.0 0.00 0.00 0.00 54 1011.1
20260506015505 63 146 4.3 14.8 0.00 0.00 0.00 54 1011.0
20260506015005 63 196 5.2 14.8 0.00 0.00 0.00 54 1010.9
20260506014507 64 77 3.5 13.9 0.00 0.00 0.00 53 1010.9
20260506014004 64 176 5.2 13.9 0.00 0.00 0.00 53 1010.9
20260506013504 64 135 5.2 13.0 0.00 0.00 0.00 53 1010.8
20260506013006 64 133 5.2 13.0 0.00 0.00 0.00 52 1010.8
20260506012504 64 151 4.3 12.2 0.00 0.00 0.00 52 1010.7
20260506012004 64 213 4.3 14.8 0.00 0.00 0.00 52 1010.5
20260506011503 65 133 6.1 14.8 0.00 0.00 0.00 52 1010.6
20260506011003 65 222 5.2 16.5 0.00 0.00 0.00 52 1010.6
20260506010503 65 295 6.1 16.5 0.00 0.00 0.00 52 1010.7
20260506010003 65 240 7.0 16.5 0.00 0.00 0.00 51 1010.4
20260506005502 65 238 4.3 17.4 0.00 0.00 0.00 51 1010.3
20260506005002 65 169 6.1 17.4 0.00 0.00 0.00 51 1010.2
20260506004504 65 61 3.5 9.6 0.00 0.00 0.00 51 1010.2
20260506004002 65 148 2.6 10.4 0.00 0.00 0.00 51 1010.2
20260506003502 65 178 2.6 13.9 0.00 0.00 0.00 51 1010.3
20260506003002 66 150 7.0 13.9 0.00 0.00 0.00 50 1010.0
20260506002502 66 95 3.5 12.2 0.00 0.00 0.00 50 1010.1
20260506002002 66 119 2.6 14.8 0.00 0.00 0.00 50 1010.0
20260506001502 66 167 7.8 16.5 0.00 0.00 0.00 50 1010.1
20260506001002 66 177 5.2 13.9 0.00 0.00 0.00 50 1010.0
20260506000501 66 211 5.2 10.4 0.00 0.00 0.00 50 1009.9
20260506000000 66 146 4.3 11.3 0.00 0.00 0.00 50 1009.9
20260505235501 66 142 2.6 11.3 0.00 0.00 0.00 49 1009.7
20260505235002 66 142 4.3 12.2 0.00 0.00 0.00 49 1009.7
20260505234617 66 234 2.6 14.8 0.00 0.00 0.00 49 1009.7
20260505234101 66 44 3.5 14.8 0.00 0.00 0.00 49 1009.7
20260505233600 66 136 5.2 11.3 0.00 0.00 0.00 49 1009.4
20260505233100 66 202 3.5 11.3 0.00 0.00 0.00 49 1009.4
20260505232600 66 66 3.5 13.0 0.00 0.00 0.00 48 1009.4
20260505232100 67 229 6.1 15.6 0.00 0.00 0.00 48 1009.2
20260505231601 67 209 3.5 15.6 0.00 0.00 0.00 48 1009.1
20260505231059 67 144 4.3 11.3 0.00 0.00 0.00 48 1009.2
20260505230559 67 219 3.5 12.2 0.00 0.00 0.00 47 1009.1
20260505230059 68 93 7.0 13.0 0.00 0.00 0.00 47 1009.1
20260505225602 68 170 1.7 13.0 0.00 0.00 0.00 46 1009.0
20260505225059 68 145 2.6 11.3 0.00 0.00 0.00 46 1009.0
20260505224559 69 219 3.5 14.8 0.00 0.00 0.00 45 1008.8
20260505224102 69 174 6.1 14.8 0.00 0.00 0.00 45 1009.0
20260505223558 70 217 6.1 13.9 0.00 0.00 0.00 45 1008.9
20260505223104 70 294 1.7 12.2 0.00 0.00 0.00 45 1008.9
20260505222558 70 82 2.6 12.2 0.00 0.00 0.00 44 1008.8
20260505222058 70 198 4.3 13.0 0.00 0.00 0.00 44 1008.6
20260505221602 70 140 5.2 17.4 0.00 0.00 0.00 45 1008.7
20260505221057 70 126 5.2 17.4 0.00 0.00 0.00 44 1008.9
20260505220558 70 129 5.2 13.9 0.00 0.00 0.00 45 1008.8
20260505220107 70 147 6.1 14.8 0.00 0.00 0.00 44 1008.7
20260505215557 70 161 4.3 11.3 0.00 0.00 0.00 45 1008.7
20260505215057 70 119 5.2 14.8 0.00 0.00 0.00 44 1008.9
20260505214607 70 132 6.1 14.8 0.00 0.00 0.00 44 1008.7
20260505214056 70 150 4.3 14.8 0.00 0.00 0.00 45 1008.6
20260505213555 71 144 3.5 14.8 0.00 0.00 0.00 45 1008.6
20260505213056 71 154 5.2 17.4 0.00 0.00 0.00 45 1008.8
20260505212501 71 225 6.1 16.5 0.00 0.00 0.00 44 1008.8
20260505212003 71 197 3.5 13.9 0.00 0.00 0.00 44 1008.5
20260505211508 71 128 5.2 14.8 0.00 0.00 0.00 45 1008.6
20260505211011 71 96 6.1 11.3 0.00 0.00 0.00 45 1008.5
20260505210554 71 49 2.6 11.3 0.00 0.00 0.00 44 1008.4
20260505210018 71 34 3.5 13.0 0.00 0.00 0.00 44 1008.4
20260505205558 71 101 4.3 13.0 0.00 0.00 0.00 44 1008.4
20260505205100 71 123 5.2 13.0 0.00 0.00 0.00 44 1008.5
20260505204506 72 117 5.2 13.0 0.00 0.00 0.00 44 1008.6
20260505204008 72 146 7.0 14.8 0.00 0.00 0.00 44 1008.6
20260505203510 72 141 3.5 12.2 0.00 0.00 0.00 44 1008.5
20260505203056 72 128 3.5 12.2 0.00 0.00 0.00 44 1008.6
20260505202556 72 114 4.3 11.3 0.00 0.00 0.00 43 1008.6
20260505202021 73 140 5.2 13.9 0.00 0.00 0.00 43 1008.7
20260505201554 73 132 5.2 13.9 0.00 0.00 0.00 43 1008.6
20260505201059 73 111 5.2 13.0 0.00 0.00 0.00 43 1008.8
20260505200508 74 226 4.3 12.2 0.00 0.00 0.00 42 1008.8
20260505200007 74 157 4.3 12.2 0.00 0.00 0.00 42 1008.7
20260505195556 74 253 5.2 13.9 0.00 0.00 0.00 43 1008.6
20260505195057 74 132 5.2 11.3 0.00 0.00 0.00 43 1008.7
20260505194501 74 225 4.3 11.3 0.00 0.00 0.00 43 1008.9
20260505194006 74 127 7.8 11.3 0.00 0.00 0.00 43 1009.1
20260505193512 74 229 4.3 9.6 0.00 0.00 0.00 43 1009.1
20260505193053 74 147 4.3 9.6 0.00 0.00 0.00 44 1009.0
20260505192558 74 131 5.2 9.6 0.00 0.00 0.00 43 1009.2
20260505192020 73 207 5.2 11.3 0.00 0.00 0.00 44 1009.3
20260505191603 73 84 5.2 13.0 0.00 0.00 0.00 43 1009.4
20260505191018 73 155 5.2 13.0 0.00 0.00 0.00 43 1009.4
20260505190558 73 205 7.0 13.0 0.00 0.00 0.00 43 1009.6
20260505190004 73 42 6.1 12.2 0.00 0.00 0.00 43 1009.7
20260505185506 73 138 7.0 12.2 0.00 0.00 0.00 43 1009.7
20260505185009 74 127 6.1 13.0 0.00 0.00 0.00 42 1009.9
20260505184554 74 114 6.1 13.0 0.00 0.00 0.00 42 1010.0
20260505184057 74 226 4.3 13.0 0.00 0.00 0.00 42 1010.0
20260505183600 74 144 5.2 13.0 0.00 0.00 0.00 43 1010.1
20260505183003 74 150 5.2 12.2 0.00 0.00 0.00 44 1009.9
20260505182507 73 96 5.2 13.0 0.00 0.00 0.00 45 1009.9
20260505182013 73 151 5.2 13.0 0.00 0.00 0.00 45 1010.0
20260505181639 73 95 5.2 13.9 0.00 0.00 0.00 45 1010.0
20260505181017 73 167 7.8 13.0 0.00 0.00 0.00 47 1010.1
20260505180558 72 115 5.2 13.0 0.00 0.00 0.00 45 1010.3
20260505180002 72 107 5.2 13.9 0.00 0.00 0.00 46 1010.3
20260505175503 71 192 5.2 13.9 0.00 0.00 0.00 47 1010.3
20260505175009 71 271 4.3 15.6 0.00 0.00 0.00 47 1010.4
20260505174510 72 165 7.0 15.6 0.00 0.00 0.00 46 1010.4
20260505174055 71 178 5.2 13.9 0.00 0.00 0.00 46 1010.5
20260505173556 72 186 7.8 13.9 0.00 0.00 0.00 46 1010.4
20260505173002 72 288 4.3 13.0 0.00 0.00 0.00 45 1010.6
20260505172504 73 43 5.2 11.3 0.00 0.00 0.00 44 1010.5
20260505172008 73 215 5.2 15.6 0.00 0.00 0.00 45 1010.5
20260505171601 73 190 7.8 16.5 0.00 0.00 0.00 44 1010.5
20260505171100 73 209 7.8 16.5 0.00 0.00 0.00 43 1010.5
20260505170504 74 98 5.2 12.2 0.00 0.00 0.00 42 1010.5
20260505170006 74 144 6.1 12.2 0.00 0.00 0.00 43 1010.6
20260505165511 74 84 3.5 13.0 0.00 0.00 0.00 43 1010.5
20260505165054 74 103 6.1 13.0 0.00 0.00 0.00 42 1010.6
20260505164558 74 62 2.6 10.4 0.00 0.00 0.00 42 1010.5
20260505164003 73 133 5.2 11.3 0.00 0.00 0.00 44 1010.7
20260505163503 74 208 4.3 11.3 0.00 0.00 0.00 45 1010.8
20260505163010 74 114 4.3 10.4 0.00 0.00 0.00 43 1010.8
20260505162510 74 117 3.5 9.6 0.00 0.00 0.00 45 1011.0
20260505162055 74 74 5.2 10.4 0.00 0.00 0.00 43 1010.9
20260505161518 75 120 4.3 10.4 0.00 0.00 0.00 43 1011.0
20260505161059 75 143 4.3 13.0 0.00 0.00 0.00 43 1010.9
20260505160601 75 203 6.1 13.0 0.00 0.00 0.00 41 1010.9
20260505153033 72 140 3.5 13.9 0.00 0.00 0.00 43 1011.2
20260505152556 72 194 6.1 13.9 0.00 0.00 0.00 43 1011.4
20260505152058 72 133 2.6 7.8 0.00 0.00 0.00 44 1011.5
20260505151507 72 144 4.3 10.4 0.00 0.00 0.00 44 1011.5
20260505151009 72 263 6.1 10.4 0.00 0.00 0.00 43 1011.6
20260505150553 72 264 4.3 10.4 0.00 0.00 0.00 43 1011.6